Powrót do katalogu

STARLINK-38274

AktywnyŁącznośćSSO
NORAD 100380·PAYLOAD·🇺🇸 United States

Wystrzelony Aug 19, 2026 z Vandenberg Space Force Base

Loading…

Następne Przeloty (najbliższe 24 godziny)

TLE

ŚwieżeSource: Space-Track

Epoka: Sep 14, 2026, 07:59 UTC

1 A0380U 26190K   26257.33267616  .00165743  00000-0  10889-2 0  9999
2 A0380  97.2837 111.3679 0002012  78.3173 281.8318 15.75226703  5409

Śledź STARLINK-38274 w czasie rzeczywistym z AllMySat

Download on the App Store